Regional Weather Roundup
Issued by NWS

Home | Current Version | Previous Version | Graphics & Text | Print | Product List | Glossary Off
Versions: 1 2 3 4 5 6 7 8 9 10 11 12 13 14 15 16 17 18 19 20 21 22 23 24 25 26 27 28 29 30 31 32 33 34 35 36 37 38 39 40 41 42 43 44 45 46 47 48 49 50

000
ASUS43 KMKX 281621
RWRWI

WISCONSIN REGIONAL WEATHER ROUNDUP
NATIONAL WEATHER SERVICE MILWAUKEE/SULLIVAN WI
1000 AM CST WED JAN 28 2015

NOTE: "FAIR" INDICATES FEW OR NO CLOUDS BELOW 12,000 FEET WITH NO
SIGNIFICANT WEATHER AND/OR OBSTRUCTIONS TO VISIBILITY.

WIZ001-002-006>008-014>016-023>028-281700-
NORTHWEST WISCONSIN

CITY           SKY/WX    TMP DP  RH WIND       PRES   REMARKS
SUPERIOR ARPT  CLOUDY    27  22  84 S5        30.00S WCI  21
ASHLAND        CLOUDY    27  22  81 S5        30.02F WCI  22
HAYWARD        CLOUDY    25  21  85 S8        30.00F FOG     WCI  16
SIREN          CLOUDY    26  22  86 S12G18    29.98F WCI  16
CUMBERLAND     CLOUDY    25  21  86 SE13G20   29.99F FOG     WCI  13
RICE LAKE      CLOUDY    25  22  89 SE15      30.03F FOG     WCI  13
CHETEK         CLOUDY    25  22  91 SE9G20    30.03F FOG     WCI  15
LADYSMITH      CLOUDY    26  24  91 SE10G18   30.05F FOG     WCI  16
EAU CLAIRE     CLOUDY    26  22  84 SE16      30.04F FOG     WCI  14
MENOMONIE      CLOUDY    27  24  88 SE13      30.04S FOG     WCI  16
NEW RICHMOND   CLOUDY    26  23  88 SE9       30.00S FOG     WCI  16
OSCEOLA        CLOUDY    27  24  88 SE14G20   30.01F FOG     WCI  16
$$

WIZ003>005-009-010-017-018-281700-
NORTH CENTRAL WISCONSIN

CITY           SKY/WX    TMP DP  RH WIND       PRES   REMARKS
MANITOWISH WTR CLOUDY    23  22  94 SE10      30.02F FOG     WCI  12
ARBOR VITAE    CLOUDY    24  22  91 SE13      30.03F FOG     WCI  13
WOODRUFF       CLOUDY    24  22  91 SE13      30.03F FOG     WCI  13
RHINELANDER    CLOUDY    23  20  88 S7        30.07F FOG     WCI  15
EAGLE RIVER    CLOUDY    24  19  84 S12       30.05F FOG     WCI  12
LAND O LAKES   CLOUDY    25  22  90 S8        30.04F FOG     WCI  16
PHILLIPS       CLOUDY    23  22  94 S12       30.03F FOG     WCI  12
TOMAHAWK       CLOUDY    23  21  91 SE5       30.07F FOG     WCI  17
MEDFORD        CLOUDY    23  21  93 SE10G17   30.06S FOG     WCI  12
MERRILL        CLOUDY    25  22  88 S7        30.09F FOG     WCI  17
$$

WIZ029-030-035-036-043>047-281700-
CENTRAL WISCONSIN

CITY           SKY/WX    TMP DP  RH WIND       PRES   REMARKS
WAUSAU         CLOUDY    25  20  81 SE13      30.09F WCI  14
MOSINEE        CLOUDY    25  21  86 SE14      30.11F WCI  13
MARSHFIELD     CLOUDY    24  21  88 SE17      30.08F FOG     WCI  11
STEVENS POINT  CLOUDY    23  18  81 S15       30.13F WCI  10
WAUPACA        PTSUNNY   28  20  71 SE9       30.18F WCI  19
WAUTOMA        CLOUDY    26  20  78 S9G22     30.17F WCI  17
WISC RAPIDS    CLOUDY    24  19  81 S13       30.13F WCI  12
CAMP DOUGLAS   CLOUDY    27  27 100 SE13G20   30.11F WCI  16
$$

WIZ011>013-019>022-031-037>040-048>050-281700-
NORTHEAST WISCONSIN

CITY           SKY/WX    TMP DP  RH WIND       PRES   REMARKS
ANTIGO         CLOUDY    22  19  89 S12       30.10F WCI  11
SHAWANO        CLOUDY    29  20  69 S5        30.19F WCI  24
OCONTO         CLOUDY    26  20  76 CALM      30.21F
STURGEON BAY   CLOUDY    27  19  74 S9        30.23F WCI  17
GREEN BAY      CLOUDY    26  20  77 S9        30.21F WCI  17
MANITOWOC      CLOUDY    30  25  81 SW9       30.23F WCI  22
APPLETON       PTSUNNY   25  18  74 S12       30.20F WCI  14
CLINTONVILLE   CLOUDY    28  19  69 S9        30.18F WCI  20
OSHKOSH        PTSUNNY   26  19  74 S10       30.19F WCI  16
$$

WIZ032>034-041-042-053>061-281700-
SOUTHWEST WISCONSIN

CITY           SKY/WX    TMP DP  RH WIND       PRES   REMARKS
LA CROSSE      CLOUDY    29  23  78 S16       30.09F HAZE    WCI  17
SPARTA         CLOUDY    27  23  85 S15       30.11S FOG     WCI  15
VIROQUA        CLOUDY    26  26 100 S12G21    30.07F WCI  15
BOSCOBEL       CLOUDY    29  24  82 VRB5      30.14F HAZE    WCI  24
PRAIRIE DU CHI CLOUDY    29  25  86 SE9       30.11F FOG     WCI  20
PLATTEVILLE    CLOUDY    28  25  88 SE17      30.13F WCI  16
$$

WIZ056-057-062-063-064-067-068-281700-
SOUTH CENTRAL WISCONSIN

CITY           SKY/WX    TMP DP  RH WIND       PRES   REMARKS
REEDSBURG      CLOUDY    25  23  91 S12G18    30.14F FOG     WCI  14
BARABOO/DELLS  CLOUDY    25  22  90 S17G23    30.14F FOG     WCI  11
LONE ROCK      CLOUDY    27  23  85 S12       30.16F FOG     WCI  17
MINERAL POINT  CLOUDY    28  27  93 S15       30.13F FOG     WCI  17
MADISON        CLOUDY    26  20  77 S10       30.19S WCI  16
MIDDLETON      CLOUDY    28  23  83 S15       30.18F WCI  16
WATERTOWN      MOSUNNY   27  20  75 S10       30.20F WCI  17
MONROE         CLOUDY    27  23  86 S15       30.18S WCI  15
JANESVILLE     SUNNY     28  19  69 S12       30.21F WCI  18
$$

WIZ051-052-058>065-066-070>072-281700-
SOUTHEAST WISCONSIN

CITY           SKY/WX    TMP DP  RH WIND       PRES   REMARKS
MILWAUKEE      PTSUNNY   28  20  71 S12       30.25R WCI  18
WAUKESHA       MOSUNNY   25  18  74 S9G17     30.24R WCI  15
MILWAUKEE/TIMM MOSUNNY   28  19  69 S9        30.25R WCI  20
RACINE         MOSUNNY   29  19  66 S9        30.27R WCI  20
BURLINGTON     MOSUNNY   26  18  71 S6        30.23S WCI  20
KENOSHA        MOSUNNY   29  19  66 S10       30.25S WCI  20
FOND DU LAC    MOSUNNY   26  19  74 S13       30.20F WCI  15
SHEBOYGAN      CLOUDY    28  21  75 S13       30.22F WCI  17
WEST BEND      MOSUNNY   28  19  69 S12G17    30.22S WCI  18
JUNEAU         MOSUNNY   25  19  76 SE14      30.22S WCI  14
$$

LSZ147-162-281700-
LAKE SUPERIOR

STATION/POSITION TIME  TEMP    WIND        PRES    WAVE
                       AIR SEA DIR/SP/G            HT/PER
                 (UTC) (F)     (DEG/KT/KT) (MB)    (FT/S)
DEVILS ISLAND    1600   27     140/  5/  8 1017.9F
PORT WING        1500   26     130/  1/  2 1016.6F
SAXON HARBOR     1500   27        CALM     1017.3F
$$

LMZ867-665-643>646-281700-
LAKE MICHIGAN

STATION/POSITION TIME  TEMP    WIND        PRES    WAVE
                       AIR SEA DIR/SP/G            HT/PER
                 (UTC) (F)     (DEG/KT/KT) (MB)    (FT/S)
NORTHPORT PIER   1606   27     200/  3/  7 1023.7S
SISTER BAY       1528   29     210/  8/  9   N/A
KEWAUNEE LAKESHO 1600   28                   N/A
SHEBOYGAN LAKESH 1600   29     200/ 10/ 12 1024.7F
PORT WASHINGTON  1540   30     210/  6/  9 1024.7F
MILWAUKEE LAKESH 1600   28     210/  9/ 11   N/A
KENOSHA   LAKESH 1600   28     170/ 15/ 17 1024.7S
$$

TC  - TEMPERATURE IN CELSIUS
VSB - VISIBILITY IN STATUTE MILES
WCI - WIND CHILL INDEX
HX  - HEAT INDEX




USA.gov is the U.S. government's official web portal to all federal, state and local government web resources and services.